Hourly Weather Sugaki

Today, 17 January, Sunday

Time Temperature Precipitation Wind Pressure Humidity
00:00 -25°C° 0 mm 4 mps 749 mmHg 94%
01:00 -25°C° 0 mm 4 mps 749 mmHg 94%
02:00 -25°C° 0 mm 3 mps 750 mmHg 95%
03:00 -25°C° 0 mm 3 mps 750 mmHg 94%
04:00 -24°C° 0 mm 2 mps 750 mmHg 93%
05:00 -24°C° 0 mm 2 mps 750 mmHg 92%
06:00 -24°C° 0 mm 2 mps 750 mmHg 91%
07:00 -24°C° 0 mm 2 mps 750 mmHg 91%
08:00 -24°C° 0 mm 2 mps 751 mmHg 91%
09:00 -21°C° 0 mm 2 mps 751 mmHg 91%
10:00 -20°C° 0 mm 2 mps 752 mmHg 91%
11:00 -17°C° 0 mm 1 mps 752 mmHg 91%
12:00 -18°C° 0 mm 2 mps 752 mmHg 91%
13:00 -17°C° 0 mm 2 mps 752 mmHg 91%
14:00 -16°C° 0 mm 2 mps 752 mmHg 91%
15:00 -17°C° 0 mm 2 mps 752 mmHg 92%
16:00 -17°C° 0 mm 2 mps 752 mmHg 92%
17:00 -18°C° 0 mm 2 mps 752 mmHg 93%
18:00 -19°C° 0 mm 2 mps 752 mmHg 94%
19:00 -19°C° 0 mm 2 mps 753 mmHg 94%
20:00 -20°C° 0 mm 2 mps 753 mmHg 95%
21:00 -21°C° 0 mm 2 mps 753 mmHg 95%
22:00 -21°C° 0 mm 2 mps 753 mmHg 95%
23:00 -20°C° 0 mm 1 mps 753 mmHg 95%

Tomorrow, 18 January, Monday

Time Temperature Precipitation Wind Pressure Humidity
00:00 -20°C° 0 mm 1 mps 753 mmHg 94%
01:00 -20°C° 0 mm 1 mps 753 mmHg 94%
02:00 -20°C° 0 mm 1 mps 753 mmHg 93%
03:00 -20°C° 0 mm 1 mps 753 mmHg 93%
04:00 -20°C° 0 mm 1 mps 753 mmHg 93%
05:00 -21°C° 0 mm 1 mps 753 mmHg 93%
06:00 -21°C° 0 mm 1 mps 753 mmHg 92%
07:00 -21°C° 0 mm 1 mps 753 mmHg 92%
08:00 -21°C° 0 mm 1 mps 753 mmHg 92%
09:00 -20°C° 0 mm 1 mps 753 mmHg 90%
10:00 -18°C° 0 mm 1 mps 753 mmHg 88%
11:00 -17°C° 0 mm 1 mps 753 mmHg 86%
12:00 -16°C° 0 mm 1 mps 753 mmHg 85%
13:00 -15°C° 0 mm 1 mps 753 mmHg 83%
14:00 -14°C° 0 mm 1 mps 753 mmHg 82%
15:00 -15°C° 0 mm 1 mps 753 mmHg 85%
16:00 -16°C° 0 mm 1 mps 753 mmHg 87%
17:00 -18°C° 0 mm 1 mps 752 mmHg 89%
18:00 -18°C° 0 mm 1 mps 752 mmHg 89%
19:00 -18°C° 0 mm 1 mps 752 mmHg 89%
20:00 -18°C° 0 mm 1 mps 752 mmHg 88%
21:00 -18°C° 0 mm 1 mps 752 mmHg 88%
22:00 -18°C° 0 mm 1 mps 752 mmHg 87%
23:00 -18°C° 0 mm 1 mps 752 mmHg 86%

Day after tomorrow, 19 January, Tuesday

Time Temperature Precipitation Wind Pressure Humidity
00:00 -18°C° 0 mm 1 mps 752 mmHg 86%
01:00 -18°C° 0 mm 1 mps 752 mmHg 85%
02:00 -20°C° 0 mm 2 mps 752 mmHg 84%
03:00 -20°C° 0 mm 2 mps 751 mmHg 85%
04:00 -20°C° 0 mm 2 mps 751 mmHg 86%
05:00 -20°C° 0 mm 2 mps 751 mmHg 87%
06:00 -20°C° 0 mm 2 mps 750 mmHg 88%
07:00 -22°C° 0 mm 3 mps 750 mmHg 90%
08:00 -22°C° 0 mm 3 mps 750 mmHg 91%
09:00 -21°C° 0 mm 3 mps 750 mmHg 90%
10:00 -18°C° 0 mm 3 mps 750 mmHg 90%
11:00 -18°C° 0 mm 4 mps 749 mmHg 89%
12:00 -17°C° 0 mm 4 mps 749 mmHg 89%
13:00 -16°C° 0 mm 4 mps 749 mmHg 89%
14:00 -15°C° 0 mm 4 mps 748 mmHg 89%
15:00 -15°C° 0 mm 4 mps 748 mmHg 90%
16:00 -15°C° 0 mm 4 mps 748 mmHg 92%
17:00 -15°C° 0 mm 4 mps 747 mmHg 93%
18:00 -15°C° 0.1 mm 4 mps 747 mmHg 93%
19:00 -15°C° 0.1 mm 4 mps 747 mmHg 93%
20:00 -14°C° 0.1 mm 4 mps 747 mmHg 94%
21:00 -14°C° 0.1 mm 4 mps 747 mmHg 94%
22:00 -14°C° 0.1 mm 4 mps 747 mmHg 94%
23:00 -14°C° 0.1 mm 4 mps 747 mmHg 94%

20 January, Wednesday

Time Temperature Precipitation Wind Pressure Humidity
00:00 -12°C° 0 mm 4 mps 747 mmHg 94%
01:00 -12°C° 0 mm 4 mps 747 mmHg 95%
02:00 -12°C° 0 mm 4 mps 747 mmHg 95%
03:00 -11°C° 0 mm 4 mps 746 mmHg 95%
04:00 -11°C° 0 mm 5 mps 746 mmHg 95%
05:00 -10°C° 0 mm 5 mps 746 mmHg 94%
06:00 -10°C° 0 mm 5 mps 746 mmHg 94%
07:00 -10°C° 0 mm 5 mps 745 mmHg 94%
08:00 -11°C° 0 mm 5 mps 745 mmHg 94%
09:00 -10°C° 0.1 mm 5 mps 745 mmHg 94%
10:00 -9°C° 0.1 mm 6 mps 745 mmHg 93%
11:00 -8°C° 0.1 mm 6 mps 745 mmHg 93%
12:00 -8°C° 0.1 mm 6 mps 745 mmHg 94%
13:00 -6°C° 0.1 mm 6 mps 745 mmHg 94%
14:00 -6°C° 0.1 mm 6 mps 744 mmHg 95%
15:00 -5°C° 0.2 mm 6 mps 744 mmHg 95%
16:00 -5°C° 0.2 mm 5 mps 744 mmHg 95%
17:00 -4°C° 0.2 mm 5 mps 744 mmHg 95%
18:00 -4°C° 0 mm 5 mps 744 mmHg 96%
19:00 -2°C° 0 mm 5 mps 744 mmHg 96%
20:00 -1°C° 0 mm 5 mps 744 mmHg 97%
21:00 -1°C° 0 mm 5 mps 744 mmHg 97%
22:00 -1°C° 0 mm 5 mps 744 mmHg 97%
23:00 -1°C° 0 mm 5 mps 743 mmHg 97%

21 January, Thursday

Time Temperature Precipitation Wind Pressure Humidity
00:00 -1°C° 0.2 mm 5 mps 743 mmHg 96%
01:00 -1°C° 0.2 mm 5 mps 743 mmHg 95%
02:00 -1°C° 0.2 mm 5 mps 743 mmHg 95%
03:00 -1°C° 0 mm 5 mps 743 mmHg 94%
04:00 -1°C° 0 mm 5 mps 743 mmHg 93%
05:00 -1°C° 0 mm 5 mps 743 mmHg 92%
06:00 -1°C° 0 mm 4 mps 743 mmHg 91%
07:00 -1°C° 0 mm 4 mps 743 mmHg 90%
08:00 -2°C° 0 mm 4 mps 743 mmHg 89%
09:00 -1°C° 0 mm 4 mps 743 mmHg 90%
10:00 -1°C° 0 mm 4 mps 744 mmHg 90%
11:00 -1°C° 0 mm 4 mps 744 mmHg 91%
12:00 -1°C° 0 mm 4 mps 744 mmHg 93%
13:00 -1°C° 0 mm 4 mps 744 mmHg 96%
14:00 -1°C° 0 mm 4 mps 744 mmHg 99%
15:00 -1°C° 0 mm 4 mps 743 mmHg 97%
16:00 -2°C° 0 mm 4 mps 743 mmHg 95%
17:00 -1°C° 0 mm 3 mps 743 mmHg 94%
18:00 -2°C° 0 mm 4 mps 743 mmHg 94%
19:00 -2°C° 0 mm 4 mps 742 mmHg 94%
20:00 -2°C° 0 mm 4 mps 742 mmHg 94%
21:00 -2°C° 0 mm 4 mps 742 mmHg 93%
22:00 -2°C° 0 mm 4 mps 742 mmHg 93%
23:00 -2°C° 0 mm 4 mps 742 mmHg 92%

22 January, Friday

Time Temperature Precipitation Wind Pressure Humidity
00:00 -2°C° 0 mm 4 mps 741 mmHg 92%
01:00 -1°C° 0 mm 4 mps 741 mmHg 92%
02:00 -1°C° 0 mm 4 mps 741 mmHg 93%
03:00 -2°C° 0 mm 4 mps 741 mmHg 93%
04:00 -2°C° 0 mm 4 mps 741 mmHg 94%
05:00 -3°C° 0 mm 4 mps 741 mmHg 95%
06:00 -3°C° 0 mm 4 mps 741 mmHg 94%
07:00 -3°C° 0 mm 4 mps 742 mmHg 94%
08:00 -4°C° 0 mm 4 mps 742 mmHg 94%
09:00 -3°C° 0 mm 4 mps 742 mmHg 93%
10:00 -2°C° 0 mm 4 mps 742 mmHg 92%
11:00 -2°C° 0 mm 4 mps 742 mmHg 91%
12:00 0°C° 0 mm 3 mps 742 mmHg 94%
13:00 0°C° 0 mm 3 mps 742 mmHg 96%
14:00 0°C° 0 mm 3 mps 741 mmHg 99%
15:00 0°C° 0 mm 3 mps 741 mmHg 99%
16:00 -1°C° 0 mm 4 mps 741 mmHg 98%
17:00 -1°C° 0 mm 4 mps 740 mmHg 98%
18:00 0°C° 0 mm 4 mps 740 mmHg 98%
19:00 0°C° 0 mm 5 mps 739 mmHg 98%
20:00 0°C° 0 mm 5 mps 739 mmHg 97%
21:00 0°C° 0 mm 5 mps 739 mmHg 97%
22:00 0°C° 0 mm 5 mps 738 mmHg 96%
23:00 0°C° 0 mm 5 mps 738 mmHg 96%
Show more